Location: Dompnac
(44.5644°N, 4.1026°E)
Time: 10:12:02
(UTC+00:00)

NOSS 2-2 (C) - Pass Details

Date: 19 September 2020
Orbit: 468 x 1740 km, 63.3° (Epoch: 19 October)

Event Time Altitude Azimuth Distance (km) Brightness Sun altitude
Rises 19:18:39 0° 229° (SW) 2,507 7.1 -17.0°
Reaches altitude 10° 19:20:45 10° 235° (SW) 1,624 6.2 -17.4°
Maximum altitude 19:24:09 50° 312° (NW) 628 4.0 -17.9°
Drops below altitude 10° 19:27:57 10° 29° (NNE) 1,810 5.9 -18.6°
Sets 19:30:24 0° 35° (NE) 2,836 6.8 -19.0°
